Weather History for Wildwood, NJ

Change the Weather History Date:

Wednesday, December 19, 2012

  Actual Average Record
Temperature  
Mean Temperature 45 °F -  
Max Temperature 48 °F 43 °F 55 °F (1997)
Min Temperature 42 °F 30 °F 24 °F (2002)
Degree Days  
Heating Degree Days 20    
Moisture  
Dew Point 32 °F    
Average Humidity 61    
Maximum Humidity 66    
Minimum Humidity 57    
Precipitation  
Precipitation 0.00 in - - ()
Sea Level Pressure  
Sea Level Pressure 29.94 in    
Wind  
Wind Speed 11 mph (WNW)    
Max Wind Speed 16 mph    
Max Gust Speed 23 mph    
Visibility 10 miles    
Events      
Averages and records for this station are not official NWS values.
T = Trace of Precipitation, MM = Missing Value Source: NWS Daily Summary

Daily Weather History Graph

Daily Weather History Graph

Search for Another Location

Airport:

Trip Planner

Search our weather history database for the weather conditions in past years. The results will help you decide how hot, cold, wet, or windy it might be!

Date:

Astronomy

Dec. 19, 2012 Rise Set
Actual Time 7:14 AM EST 4:39 PM EST
Civil Twilight 6:44 AM EST 5:09 PM EST
Nautical Twilight 6:10 AM EST 5:43 PM EST
Astronomical Twilight 5:37 AM EST 6:16 PM EST
Moon 11:25 AM EST (12/19) No Moon Set
Length of Visible Light 10h 25m
Length of Day
9h 25m
Waxing Crescent, 45% of the Moon is Illuminated
Dec 19
Waxing Crescent
Dec 20
First Quarter
Dec 28
Full
Jan 4
Last Quarter
Jan 11
New

Hourly Weather History & Observations

Time (EST) Temp. Windchill Dew Point Humidity Pressure Visibility Wind Dir Wind Speed Gust Speed Precip Events Conditions
12:15 AM 44.6 °F 38.4 °F 30.2 °F 57% 29.76 in 10.0 mi WNW 12.7 mph 19.6 mph N/A   Clear
12:35 AM 42.8 °F 36.6 °F 30.2 °F 61% 29.77 in 10.0 mi West 11.5 mph - N/A   Clear
12:55 AM 42.8 °F 36.6 °F 30.2 °F 61% 29.77 in 10.0 mi West 11.5 mph 21.9 mph N/A   Clear
1:15 AM 42.8 °F 35.8 °F 30.2 °F 61% 29.79 in 10.0 mi West 13.8 mph 20.7 mph N/A   Clear
1:35 AM 42.8 °F 35.8 °F 30.2 °F 61% 29.79 in 10.0 mi West 13.8 mph 21.9 mph N/A   Clear
1:55 AM 42.8 °F 37.0 °F 30.2 °F 61% 29.79 in 10.0 mi WNW 10.4 mph 18.4 mph N/A   Scattered Clouds
2:15 AM 42.8 °F 36.2 °F 30.2 °F 61% 29.79 in 10.0 mi WNW 12.7 mph 19.6 mph N/A   Partly Cloudy
2:35 AM 42.8 °F 36.2 °F 30.2 °F 61% 29.79 in 10.0 mi West 12.7 mph 19.6 mph N/A   Clear
2:55 AM 42.8 °F 36.6 °F 30.2 °F 61% 29.79 in 10.0 mi WNW 11.5 mph 18.4 mph N/A   Clear
3:15 AM 42.8 °F 36.6 °F 30.2 °F 61% 29.80 in 10.0 mi West 11.5 mph 17.3 mph N/A   Clear
3:35 AM 42.8 °F 36.6 °F 30.2 °F 61% 29.80 in 10.0 mi West 11.5 mph - N/A   Clear
3:55 AM 42.8 °F 37.0 °F 30.2 °F 61% 29.81 in 10.0 mi West 10.4 mph 18.4 mph N/A   Partly Cloudy
4:15 AM 42.8 °F 37.5 °F 30.2 °F 61% 29.80 in 10.0 mi West 9.2 mph - N/A   Partly Cloudy
4:35 AM 42.8 °F 37.5 °F 30.2 °F 61% 29.81 in 10.0 mi West 9.2 mph 16.1 mph N/A   Clear
4:55 AM 42.8 °F 36.6 °F 30.2 °F 61% 29.82 in 10.0 mi West 11.5 mph 16.1 mph N/A   Clear
5:15 AM 42.8 °F 38.0 °F 30.2 °F 61% 29.82 in 10.0 mi West 8.1 mph - N/A   Mostly Cloudy
5:35 AM 42.8 °F 38.0 °F 30.2 °F 61% 29.83 in 10.0 mi West 8.1 mph 16.1 mph N/A   Scattered Clouds
5:55 AM 42.8 °F 37.5 °F 30.2 °F 61% 29.84 in 10.0 mi West 9.2 mph - N/A   Scattered Clouds
6:15 AM 42.8 °F 36.6 °F 32.0 °F 66% 29.85 in 10.0 mi West 11.5 mph 17.3 mph N/A   Mostly Cloudy
6:35 AM 44.6 °F 38.1 °F 32.0 °F 61% 29.86 in 10.0 mi West 13.8 mph 18.4 mph N/A   Overcast
6:55 AM 44.6 °F 38.8 °F 30.2 °F 57% 29.86 in 10.0 mi WNW 11.5 mph 16.1 mph N/A   Overcast
7:15 AM 44.6 °F 39.2 °F 32.0 °F 61% 29.86 in 10.0 mi West 10.4 mph - N/A   Overcast
7:35 AM 44.6 °F 39.2 °F 32.0 °F 61% 29.87 in 10.0 mi West 10.4 mph 17.3 mph N/A   Overcast
7:55 AM 44.6 °F 40.2 °F 32.0 °F 61% 29.87 in 10.0 mi WNW 8.1 mph - N/A   Overcast
8:15 AM 44.6 °F 40.2 °F 32.0 °F 61% 29.87 in 10.0 mi WNW 8.1 mph - N/A   Overcast
8:35 AM 44.6 °F 40.2 °F 32.0 °F 61% 29.88 in 10.0 mi WNW 8.1 mph - N/A   Overcast
8:55 AM 44.6 °F 40.2 °F 32.0 °F 61% 29.88 in 10.0 mi WNW 8.1 mph - N/A   Overcast
9:15 AM 46.4 °F 42.4 °F 33.8 °F 62% 29.89 in 10.0 mi NW 8.1 mph - N/A   Overcast
9:35 AM 46.4 °F 43.5 °F 33.8 °F 62% 29.90 in 10.0 mi NW 5.8 mph - N/A   Mostly Cloudy
9:55 AM 46.4 °F 42.4 °F 33.8 °F 62% 29.90 in 10.0 mi NW 8.1 mph - N/A   Overcast
10:15 AM 46.4 °F 41.9 °F 33.8 °F 62% 29.90 in 10.0 mi WNW 9.2 mph - N/A   Overcast
10:35 AM 46.4 °F 40.7 °F 33.8 °F 62% 29.89 in 10.0 mi NW 12.7 mph - N/A   Scattered Clouds
10:55 AM 46.4 °F 41.5 °F 33.8 °F 62% 29.89 in 10.0 mi NW 10.4 mph - N/A   Clear
11:15 AM 46.4 °F 41.9 °F 33.8 °F 62% 29.89 in 10.0 mi WNW 9.2 mph 17.3 mph N/A   Clear
11:35 AM 46.4 °F 40.7 °F 33.8 °F 62% 29.89 in 10.0 mi NW 12.7 mph 17.3 mph N/A   Clear
11:55 AM 46.4 °F 40.7 °F 33.8 °F 62% 29.88 in 10.0 mi West 12.7 mph 19.6 mph N/A   Clear
12:15 PM 48.2 °F - 33.8 °F 58% 29.88 in 10.0 mi WNW 10.4 mph 18.4 mph N/A   Clear
12:35 PM 48.2 °F - 33.8 °F 58% 29.88 in 10.0 mi West 16.1 mph 20.7 mph N/A   Clear
12:55 PM 48.2 °F - 33.8 °F 58% 29.89 in 10.0 mi WNW 11.5 mph 21.9 mph N/A   Clear
1:15 PM 48.2 °F - 33.8 °F 58% 29.90 in 10.0 mi WNW 15.0 mph 20.7 mph N/A   Clear
1:35 PM 48.2 °F - 33.8 °F 58% 29.91 in 10.0 mi WNW 15.0 mph 20.7 mph N/A   Clear
1:55 PM 48.2 °F - 33.8 °F 58% 29.91 in 10.0 mi WNW 10.4 mph 23.0 mph N/A   Clear
2:15 PM 48.2 °F - 35.6 °F 62% 29.92 in 10.0 mi WNW 12.7 mph - N/A   Clear
2:35 PM 48.2 °F - 35.6 °F 62% 29.92 in 10.0 mi WNW 10.4 mph 16.1 mph N/A   Clear
2:55 PM 48.2 °F - 35.6 °F 62% 29.93 in 10.0 mi WNW 9.2 mph 18.4 mph N/A   Clear
3:15 PM 48.2 °F - 35.6 °F 62% 29.95 in 10.0 mi NW 10.4 mph 21.9 mph N/A   Clear
3:35 PM 48.2 °F - 35.6 °F 62% 29.95 in 10.0 mi NW 12.7 mph 19.6 mph N/A   Clear
3:55 PM 48.2 °F - 35.6 °F 62% 29.96 in 10.0 mi NW 9.2 mph 17.3 mph N/A   Clear
4:15 PM 46.4 °F 40.7 °F 33.8 °F 62% 29.97 in 10.0 mi WNW 12.7 mph 16.1 mph N/A   Clear
4:35 PM 46.4 °F 41.5 °F 35.6 °F 66% 29.98 in 10.0 mi NW 10.4 mph 20.7 mph N/A   Scattered Clouds
4:55 PM 46.4 °F 41.9 °F 33.8 °F 62% 30.00 in 10.0 mi NW 9.2 mph - N/A   Mostly Cloudy
5:15 PM 46.4 °F 41.5 °F 33.8 °F 62% 30.01 in 10.0 mi NW 10.4 mph 16.1 mph N/A   Partly Cloudy
5:35 PM 46.4 °F 42.4 °F 33.8 °F 62% 30.02 in 10.0 mi NW 8.1 mph - N/A   Clear
5:55 PM 46.4 °F 41.1 °F 33.8 °F 62% 30.04 in 10.0 mi NW 11.5 mph 18.4 mph N/A   Clear
6:15 PM 44.6 °F 38.8 °F 32.0 °F 61% 30.05 in 10.0 mi NW 11.5 mph 17.3 mph N/A   Clear
6:35 PM 44.6 °F 39.2 °F 30.2 °F 57% 30.07 in 10.0 mi NW 10.4 mph 18.4 mph N/A   Clear
6:55 PM 44.6 °F 39.7 °F 30.2 °F 57% 30.07 in 10.0 mi NW 9.2 mph 16.1 mph N/A   Clear
7:15 PM 44.6 °F 40.2 °F 30.2 °F 57% 30.08 in 10.0 mi NW 8.1 mph - N/A   Clear
7:35 PM 44.6 °F 40.7 °F 30.2 °F 57% 30.09 in 10.0 mi NW 6.9 mph - N/A   Clear
7:55 PM 44.6 °F 40.7 °F 30.2 °F 57% 30.10 in 10.0 mi NW 6.9 mph - N/A   Clear
8:15 PM 44.6 °F 40.7 °F 30.2 °F 57% 30.11 in 10.0 mi NW 6.9 mph - N/A   Clear
8:35 PM 44.6 °F 41.4 °F 30.2 °F 57% 30.12 in 10.0 mi NW 5.8 mph - N/A   Clear
8:55 PM 44.6 °F 40.7 °F 30.2 °F 57% 30.12 in 10.0 mi NW 6.9 mph - N/A   Clear
9:15 PM 44.6 °F 42.2 °F 32.0 °F 61% 30.13 in 10.0 mi NW 4.6 mph - N/A   Clear
9:35 PM 44.6 °F 40.7 °F 32.0 °F 61% 30.13 in 10.0 mi NW 6.9 mph - N/A   Clear
9:55 PM 44.6 °F 40.7 °F 30.2 °F 57% 30.15 in 10.0 mi NW 6.9 mph - N/A   Clear
10:15 PM 44.6 °F 40.7 °F 30.2 °F 57% 30.14 in 10.0 mi NW 6.9 mph - N/A   Clear
10:35 PM 44.6 °F 41.4 °F 30.2 °F 57% 30.15 in 10.0 mi NW 5.8 mph - N/A   Clear
10:55 PM 42.8 °F 39.3 °F 32.0 °F 66% 30.15 in 10.0 mi NNW 5.8 mph - N/A   Clear
11:15 PM 42.8 °F 39.3 °F 32.0 °F 66% 30.16 in 10.0 mi NNW 5.8 mph - N/A   Clear
11:35 PM 42.8 °F 40.1 °F 30.2 °F 61% 30.15 in 10.0 mi NNW 4.6 mph - N/A   Clear
11:55 PM 42.8 °F 40.1 °F 32.0 °F 66% 30.17 in 10.0 mi NNW 4.6 mph - N/A   Clear